This is the latest recevied weather packets stored in our database for station/object G7GQA-4. If no packets are shown the sender has not sent any weather packets the latest 10 day(s).
| Time | Temp. | Humidity | Pressure | Rain* | Wind** | Luminosity | Snow |
|---|---|---|---|---|---|---|---|
| 1777485329 | 16.11° C | 30% | - | 0 mm | - | 54 W/m² | - |
| 1777484729 | 16.67° C | 29% | - | 0 mm | - | 60 W/m² | - |
| 1777483529 | 17.22° C | 30% | - | 0 mm | - | 72 W/m² | - |
| 1777482929 | 17.22° C | 29% | - | 0 mm | - | 94 W/m² | - |
| 1777481729 | 17.78° C | 28% | - | 0 mm | - | 266 W/m² | - |
| 1777473328 | 18.33° C | 31% | - | 0 mm | - | 494 W/m² | - |
| 1777472728 | 18.33° C | 31% | - | 0 mm | - | 402 W/m² | - |
| 1777469728 | 18.33° C | 33% | - | 0 mm | - | 533 W/m² | - |
| 1777469127 | 18.33° C | 33% | - | 0 mm | - | 688 W/m² | - |
| 1777468527 | 18.33° C | 32% | - | 0 mm | - | 712 W/m² | - |
| 1777466727 | 17.78° C | 31% | - | 0 mm | - | 728 W/m² | - |
| 1777466127 | 18.33° C | 31% | - | 0 mm | - | 734 W/m² | - |
| 1777463727 | 17.22° C | 38% | - | 0 mm | - | 736 W/m² | - |
| 1777463127 | 16.67° C | 40% | - | 0 mm | - | 735 W/m² | - |
| 1777462527 | 16.67° C | 41% | - | 0 mm | - | 731 W/m² | - |
| 1777461927 | 17.22° C | 42% | - | 0 mm | - | 732 W/m² | - |
| 1777461327 | 16.11° C | 42% | - | 0 mm | - | 728 W/m² | - |
| 1777460727 | 16.67° C | 43% | - | 0 mm | - | 723 W/m² | - |
| 1777458927 | 15.56° C | 45% | - | 0 mm | - | 697 W/m² | - |
| 1777458327 | 15.56° C | 44% | - | 0 mm | - | 681 W/m² | - |
| 1777457727 | 15.56° C | 44% | - | 0 mm | - | 661 W/m² | - |
| 1777457127 | 15.56° C | 44% | - | 0 mm | - | 646 W/m² | - |
| 1777456527 | 15.56° C | 44% | - | 0 mm | - | 291 W/m² | - |
| 1777455927 | 15.56° C | 45% | - | 0 mm | - | 604 W/m² | - |
| 1777455327 | 15.56° C | 45% | - | 0 mm | - | 587 W/m² | - |
* Rain latest hour (hover to see other rain measurements)
** Current wind speed in m/s (hover to see current wind gust speed)